Weather History for Alexandria, MN

Change the Weather History Date:

Saturday, March 29, 2014

  Actual Average Record
Temperature  
Mean Temperature 26 °F -  
Max Temperature 37 °F 41 °F 69 °F (1986)
Min Temperature 14 °F 24 °F -12 °F (1969)
Degree Days  
Heating Degree Days 40    
Moisture  
Dew Point 17 °F    
Average Humidity 65    
Maximum Humidity 80    
Minimum Humidity 47    
Precipitation  
Precipitation 0.00 in - - ()
Sea Level Pressure  
Sea Level Pressure 30.19 in    
Wind  
Wind Speed 7 mph (SSE)    
Max Wind Speed 21 mph    
Max Gust Speed 28 mph    
Visibility 10 miles    
Events      
Averages and records for this station are not official NWS values.
T = Trace of Precipitation, MM = Missing Value Source: NWS Daily Summary

Daily Weather History Graph

Daily Weather History Graph

Search for Another Location

Airport:

Trip Planner

Search our weather history database for the weather conditions in past years. The results will help you decide how hot, cold, wet, or windy it might be!

Date:

Astronomy

Mar. 29, 2014 Rise Set
Actual Time 7:07 AM CDT 7:46 PM CDT
Civil Twilight 6:37 AM CDT 8:16 PM CDT
Nautical Twilight 6:01 AM CDT 8:51 PM CDT
Astronomical Twilight 5:24 AM CDT 9:29 PM CDT
Moon 6:20 AM CDT (3/29) 6:50 PM CDT (3/29)
Length of Visible Light 13h 38m
Length of Day
12h 38m
Waning Crescent, 2% of the Moon is Illuminated
Mar 29
Waning Crescent
Mar 30
New
Apr 7
First Quarter
Apr 15
Full
Apr 22
Last Quarter

Hourly Weather History & Observations

Time (CDT) Temp. Windchill Dew Point Humidity Pressure Visibility Wind Dir Wind Speed Gust Speed Precip Events Conditions
12:53 AM 19.0 °F - 9.0 °F 65% 30.32 in 10.0 mi Calm Calm - N/A   Overcast
1:53 AM 17.1 °F - 9.0 °F 71% 30.31 in 10.0 mi Calm Calm - N/A   Mostly Cloudy
2:53 AM 17.1 °F - 9.0 °F 71% 30.31 in 10.0 mi Calm Calm - N/A   Clear
3:53 AM 15.1 °F - 7.0 °F 70% 30.31 in 10.0 mi Calm Calm - N/A   Clear
4:53 AM 14.0 °F - 9.0 °F 80% 30.31 in 10.0 mi Calm Calm - N/A   Clear
5:53 AM 14.0 °F 8.2 °F 7.0 °F 74% 30.30 in 10.0 mi SE 3.5 mph - N/A   Clear
6:53 AM 16.0 °F 7.4 °F 5.0 °F 62% 30.30 in 10.0 mi SSE 5.8 mph - N/A   Clear
7:53 AM 16.0 °F 7.4 °F 5.0 °F 62% 30.31 in 10.0 mi SE 5.8 mph - N/A   Clear
8:53 AM 21.0 °F 12.4 °F 8.1 °F 57% 30.30 in 10.0 mi SSE 6.9 mph - N/A   Clear
9:53 AM 27.0 °F 19.5 °F 10.9 °F 51% 30.29 in 10.0 mi South 6.9 mph - N/A   Clear
10:53 AM 28.9 °F 18.6 °F 12.0 °F 49% 30.28 in 10.0 mi South 12.7 mph - N/A   Clear
11:53 AM 30.9 °F 20.7 °F 12.9 °F 47% 30.26 in 10.0 mi South 13.8 mph - N/A   Clear
12:53 PM 32.0 °F 21.2 °F 15.1 °F 50% 30.24 in 10.0 mi South 16.1 mph 23.0 mph N/A   Clear
1:53 PM 33.1 °F 22.2 °F 16.0 °F 50% 30.20 in 10.0 mi South 17.3 mph - N/A   Clear
2:53 PM 35.1 °F 24.8 °F 19.0 °F 52% 30.16 in 10.0 mi SSE 17.3 mph 25.3 mph N/A   Clear
3:53 PM 36.0 °F 25.0 °F 21.9 °F 57% 30.12 in 10.0 mi SSE 20.7 mph - N/A   Clear
4:53 PM 37.0 °F 26.7 °F 26.1 °F 65% 30.09 in 10.0 mi SSE 19.6 mph - N/A   Clear
5:53 PM 37.9 °F 27.6 °F 27.0 °F 65% 30.07 in 10.0 mi SSE 20.7 mph 27.6 mph N/A   Clear
6:53 PM 37.0 °F 27.4 °F 28.0 °F 70% 30.05 in 10.0 mi SSE 17.3 mph 25.3 mph N/A   Clear
7:53 PM 36.0 °F 25.6 °F 28.9 °F 76% 30.03 in 10.0 mi SSE 18.4 mph 24.2 mph N/A   Clear
8:53 PM 36.0 °F 26.3 °F 28.9 °F 76% 30.03 in 10.0 mi SSE 16.1 mph 23.0 mph N/A   Clear
9:53 PM 36.0 °F 25.0 °F 28.9 °F 76% 30.00 in 10.0 mi SSE 20.7 mph - N/A   Clear
10:53 PM 36.0 °F 25.0 °F 30.0 °F 79% 29.98 in 10.0 mi SSE 20.7 mph - N/A   Clear
11:53 PM 37.0 °F 27.4 °F 30.9 °F 79% 29.94 in 10.0 mi SSE 17.3 mph - N/A   Clear